CW2474 Weather Reports


time (UTC)temp
C
wind
direction
speed
KPH
gust
KPH
rain 1hr
cm
rain 24hr
cm
rain mn
cm
humidity
%
barometer
mb
20260906222028 28 11 1.6 3.2 0.00 0.00 0.00 42 1014.8
20260906221021 29 11 1.6 6.4 0.00 0.00 0.00 38 1014.8
20260906220116 31 355 1.6 4.8 0.00 0.00 0.00 37 1015.0
20260906215129 30 323 3.2 6.4 0.00 0.00 0.00 42 1015.2
20260906214105 30 294 3.2 8.0 0.00 0.00 0.00 38 1015.2
20260906213058 30 333 3.2 6.4 0.00 0.00 0.00 37 1015.3
20260906212050 29 11 1.6 4.8 0.00 0.00 0.00 40 1015.4
20260906211042 27 17 1.6 3.2 0.00 0.00 0.00 42 1015.8
20260906210015 27 17 0.0 3.2 0.00 0.00 0.00 45 1016.0
20260906205013 28 19 0.0 3.2 0.00 0.00 0.00 40 1016.1
20260906204027 27 19 0.0 3.2 0.00 0.00 0.00 43 1016.2
20260906203102 28 107 0.0 3.2 0.00 0.00 0.00 40 1016.2
20260906202015 29 121 0.0 6.4 0.00 0.00 0.00 38 1016.4
20260906201033 28 69 3.2 11.3 0.00 0.00 0.00 37 1016.4
20260906200046 30 5 1.6 12.9 0.00 0.00 0.00 39 1016.6
20260906195120 30 323 3.2 6.4 0.00 0.00 0.00 42 1016.5
20260906195016 30 323 3.2 6.4 0.00 0.00 0.00 42 1016.5
20260906194051 29 329 3.2 8.0 0.00 0.00 0.00 40 1016.6
20260906193124 29 22 1.6 16.1 0.00 0.00 0.00 43 1016.7
20260906192014 28 344 4.8 12.9 0.00 0.00 0.00 42 1016.9
20260906191110 29 25 1.6 6.4 0.00 0.00 0.00 46 1017.1
20260906191028 29 25 1.6 6.4 0.00 0.00 0.00 46 1017.1
20260906185018 28 87 3.2 8.0 0.00 0.00 0.00 46 1017.2
20260906184113 28 338 1.6 6.4 0.00 0.00 0.00 49 1017.6
20260906184030 28 338 1.6 6.4 0.00 0.00 0.00 49 1017.6
20260906183125 27 46 1.6 4.8 0.00 0.00 0.00 54 1017.8
20260906182015 26 292 1.6 6.4 0.00 0.00 0.00 53 1017.9
20260906181030 26 304 1.6 6.4 0.00 0.00 0.00 51 1018.0
20260906180028 26 5 1.6 8.0 0.00 0.00 0.00 50 1018.2
20260906175042 26 55 1.6 8.0 0.00 0.00 0.00 52 1018.4
20260906174035 26 319 3.2 6.4 0.00 0.00 0.00 57 1018.6
20260906173108 26 19 1.6 6.4 0.00 0.00 0.00 59 1018.9
20260906172101 25 209 1.6 4.8 0.00 0.00 0.00 57 1019.0
20260906172018 25 209 1.6 4.8 0.00 0.00 0.00 57 1019.0
20260906171013 24 103 1.6 3.2 0.00 0.00 0.00 59 1019.0
20260906170108 23 52 1.6 4.8 0.00 0.00 0.00 63 1019.2
20260906165024 23 200 3.2 6.4 0.00 0.00 0.00 61 1019.4
20260906164039 22 315 1.6 4.8 0.00 0.00 0.00 64 1019.6
20260906163012 22 279 1.6 4.8 0.00 0.00 0.00 64 1019.6
20260906162046 22 13 0.0 4.8 0.00 0.00 0.00 67 1019.6
20260906161125 22 15 1.6 4.8 0.00 0.00 0.00 66 1019.5
20260906161022 22 15 1.6 4.8 0.00 0.00 0.00 66 1019.5
20260906160015 22 13 0.0 3.2 0.00 0.00 0.00 68 1019.5
20260906155028 22 13 1.6 3.2 0.00 0.00 0.00 70 1019.5
20260906154041 21 90 1.6 3.2 0.00 0.00 0.00 69 1019.5
20260906153014 21 68 0.0 4.8 0.00 0.00 0.00 73 1019.6
20260906152011 21 5 0.0 3.2 0.00 0.00 0.00 72 1019.7
20260906151044 20 329 0.0 4.8 0.00 0.00 0.00 73 1019.8
20260906150119 20 342 0.0 3.2 0.00 0.00 0.00 76 1019.8
20260906145051 18 342 1.6 3.2 0.00 0.00 0.00 79 1019.8
20260906144043 18 342 1.6 3.2 0.00 0.00 0.00 78 1019.9
20260906143037 19 329 0.0 4.8 0.00 0.00 0.00 76 1019.9
20260906142055 20 13 1.6 4.8 0.00 0.00 0.00 76 1019.7
20260906142013 20 13 1.6 4.8 0.00 0.00 0.00 76 1019.7
20260906141046 19 15 0.0 4.8 0.00 0.00 0.00 77 1019.8
20260906140039 18 333 1.6 4.8 0.00 0.00 0.00 76 1019.6
20260906135113 18 342 1.6 4.8 0.00 0.00 0.00 78 1019.5
20260906134045 17 290 0.0 3.2 0.00 0.00 0.00 79 1019.6
20260906133058 16 287 0.0 0.0 0.00 0.00 0.00 78 1019.6
20260906132131 16 287 0.0 1.6 0.00 0.00 0.00 79 1019.5
20260906132049 16 287 0.0 1.6 0.00 0.00 0.00 79 1019.5
20260906131042 16 287 0.0 3.2 0.00 0.00 0.00 78 1019.5
20260906130019 16 287 1.6 3.2 0.00 0.00 0.00 79 1019.4
20260906125053 15 287 1.6 1.6 0.00 0.00 0.00 78 1019.4
20260906125011 15 287 1.6 1.6 0.00 0.00 0.00 78 1019.4
20260906124105 15 287 0.0 0.0 0.00 0.00 0.00 79 1019.1
20260906123037 16 287 0.0 0.0 0.00 0.00 0.00 81 1019.3
20260906122050 16 287 0.0 0.0 0.00 0.00 0.00 80 1019.1
20260906121103 16 287 0.0 3.2 0.00 0.00 0.00 80 1019.0
20260906120018 16 287 0.0 0.0 0.00 0.00 0.00 80 1018.9
20260906115033 17 287 0.0 3.2 0.00 0.00 0.00 77 1018.9
20260906114025 17 287 0.0 3.2 0.00 0.00 0.00 75 1018.9
20260906113100 16 287 0.0 1.6 0.00 0.00 0.00 75 1019.0
20260906113018 16 287 0.0 1.6 0.00 0.00 0.00 75 1019.0
20260906112011 16 287 0.0 3.2 0.00 0.00 0.00 73 1018.8
20260906111029 16 287 0.0 3.2 0.00 0.00 0.00 72 1018.8
20260906110023 16 287 0.0 0.0 0.00 0.00 0.00 72 1018.8
20260906105118 16 287 0.0 1.6 0.00 0.00 0.00 71 1018.8
20260906105036 16 287 0.0 1.6 0.00 0.00 0.00 71 1018.8
20260906104109 16 287 0.0 3.2 0.00 0.00 0.00 71 1018.9
20260906103121 16 287 0.0 3.2 0.00 0.00 0.00 71 1018.9
20260906103018 16 287 0.0 3.2 0.00 0.00 0.00 71 1018.9
20260906102133 16 287 1.6 3.2 0.00 0.00 0.00 70 1018.8
20260906102050 16 287 1.6 3.2 0.00 0.00 0.00 70 1018.8
20260906101043 17 287 0.0 1.6 0.00 0.00 0.00 72 1018.8
20260906100117 17 287 0.0 3.2 0.00 0.00 0.00 70 1018.7
20260906100014 17 287 0.0 3.2 0.00 0.00 0.00 70 1018.7
20260906095032 17 287 0.0 3.2 0.00 0.00 0.00 69 1018.6
20260906094126 18 285 0.0 0.0 0.00 0.00 0.00 68 1018.8
20260906094044 18 285 0.0 0.0 0.00 0.00 0.00 68 1018.8
20260906093056 17 285 0.0 3.2 0.00 0.00 0.00 67 1018.8
20260906092109 18 355 0.0 3.2 0.00 0.00 0.00 67 1018.6
20260906092027 18 355 0.0 3.2 0.00 0.00 0.00 67 1018.6
20260906091041 18 355 0.0 3.2 0.00 0.00 0.00 66 1018.3
20260906090035 18 331 1.6 4.8 0.00 0.00 0.00 64 1018.1
20260906085109 18 9 1.6 3.2 0.00 0.00 0.00 62 1018.0
20260906084046 19 9 1.6 3.2 0.00 0.00 0.00 60 1018.0
20260906083020 19 12 1.6 4.8 0.00 0.00 0.00 59 1017.9
20260906082054 20 11 1.6 4.8 0.00 0.00 0.00 56 1018.1
20260906081128 20 12 1.6 3.2 0.00 0.00 0.00 54 1018.3
20260906081045 20 12 1.6 3.2 0.00 0.00 0.00 54 1018.3
20260906080100 20 347 0.0 3.2 0.00 0.00 0.00 53 1018.1
20260906080017 20 347 0.0 3.2 0.00 0.00 0.00 53 1018.1
20260906075133 20 360 1.6 3.2 0.00 0.00 0.00 54 1018.1
20260906075029 20 360 1.6 3.2 0.00 0.00 0.00 54 1018.1
20260906074104 20 80 0.0 3.2 0.00 0.00 0.00 51 1018.0
20260906073020 21 80 0.0 3.2 0.00 0.00 0.00 48 1018.1
20260906072014 21 80 0.0 3.2 0.00 0.00 0.00 48 1018.2
20260906071048 21 80 0.0 3.2 0.00 0.00 0.00 51 1018.1
20260906070042 21 80 0.0 3.2 0.00 0.00 0.00 48 1018.1
20260906065055 22 90 1.6 3.2 0.00 0.00 0.00 45 1018.2
20260906064032 21 15 3.2 3.2 0.00 0.00 0.00 46 1018.1
20260906063107 21 15 0.0 3.2 0.00 0.00 0.00 46 1018.2
20260906062120 21 15 0.0 3.2 0.00 0.00 0.00 46 1018.3
20260906062038 21 15 0.0 3.2 0.00 0.00 0.00 46 1018.3
20260906061030 21 15 0.0 3.2 0.00 0.00 0.00 46 1018.0
20260906060024 22 15 1.6 3.2 0.00 0.00 0.00 44 1017.9
20260906055120 22 119 1.6 4.8 0.00 0.00 0.00 44 1018.3
20260906055016 22 119 1.6 4.8 0.00 0.00 0.00 44 1018.3
20260906054111 23 151 4.8 4.8 0.00 0.00 0.00 40 1018.5
20260906054029 23 151 4.8 4.8 0.00 0.00 0.00 40 1018.5
20260906053027 23 144 6.4 11.3 0.00 0.00 0.00 41 1018.4
20260906052102 23 142 6.4 8.0 0.00 0.00 0.00 40 1018.5
20260906051119 24 90 4.8 9.7 0.00 0.00 0.00 38 1018.3
20260906051015 24 90 4.8 9.7 0.00 0.00 0.00 38 1018.3
20260906050032 24 80 0.0 3.2 0.00 0.00 0.00 39 1017.9
20260906045108 24 82 3.2 9.7 0.00 0.00 0.00 39 1017.9
20260906044104 23 76 3.2 9.7 0.00 0.00 0.00 40 1018.0
20260906043042 22 218 0.0 9.7 0.00 0.00 0.00 43 1018.1
20260906042037 22 228 8.0 14.5 0.00 0.00 0.00 44 1018.1
20260906041112 23 19 1.6 4.8 0.00 0.00 0.00 40 1017.6
20260906040106 25 82 3.2 4.8 0.00 0.00 0.00 38 1017.5
20260906035039 25 61 0.0 14.5 0.00 0.00 0.00 38 1017.1
20260906034036 25 85 1.6 3.2 0.00 0.00 0.00 38 1017.2
20260906033054 25 85 0.0 4.8 0.00 0.00 0.00 37 1017.1
20260906033012 25 85 0.0 4.8 0.00 0.00 0.00 37 1017.1
20260906032048 25 63 3.2 6.4 0.00 0.00 0.00 36 1017.1
20260906031104 25 82 3.2 6.4 0.00 0.00 0.00 36 1017.0
20260906030019 25 327 1.6 3.2 0.00 0.00 0.00 38 1016.8
20260906025116 25 327 1.6 3.2 0.00 0.00 0.00 38 1016.6
20260906025034 25 327 1.6 3.2 0.00 0.00 0.00 38 1016.6
20260906024110 26 327 0.0 3.2 0.00 0.00 0.00 36 1016.5
20260906023125 26 327 0.0 3.2 0.00 0.00 0.00 34 1016.3
20260906023022 26 327 0.0 3.2 0.00 0.00 0.00 34 1016.3
20260906022042 26 325 1.6 6.4 0.00 0.00 0.00 34 1016.2
20260906021058 26 306 1.6 8.0 0.00 0.00 0.00 35 1016.3
20260906021016 26 306 1.6 8.0 0.00 0.00 0.00 35 1016.3
20260906020031 26 270 1.6 4.8 0.00 0.00 0.00 33 1016.4
20260906015025 26 294 0.0 3.2 0.00 0.00 0.00 34 1016.2
20260906014101 26 294 3.2 12.9 0.00 0.00 0.00 34 1016.1
20260906013040 27 306 3.2 9.7 0.00 0.00 0.00 33 1015.9
20260906012034 27 331 4.8 12.9 0.00 0.00 0.00 33 1016.0
20260906011130 27 261 3.2 14.5 0.00 0.00 0.00 33 1016.0
20260906010023 27 323 3.2 16.1 0.00 0.00 0.00 32 1016.0
20260906005040 28 284 6.4 12.9 0.00 0.00 0.00 31 1016.0
20260906004115 28 265 4.8 14.5 0.00 0.00 0.00 31 1016.1
20260906003047 28 304 3.2 11.3 0.00 0.00 0.00 30 1016.2
20260906002045 29 317 4.8 16.1 0.00 0.00 0.00 30 1016.0
20260906001102 30 324 4.8 12.9 0.00 0.00 0.00 31 1016.0
20260906000036 30 319 6.4 20.9 0.00 0.00 0.00 29 1016.0
20260905235011 29 325 4.8 16.1 0.00 0.00 0.00 32 1016.0
20260905234127 29 13 1.6 4.8 0.00 0.00 0.00 33 1015.9
20260905233040 30 13 1.6 3.2 0.00 0.00 0.00 33 1015.9
20260905232039 31 13 0.0 3.2 0.00 0.00 0.00 28 1015.8
20260905231014 31 13 0.0 3.2 0.00 0.00 0.00 29 1015.7
20260905230110 31 13 1.6 3.2 0.00 0.00 0.00 29 1015.5
20260905225105 31 13 0.0 4.8 0.00 0.00 0.00 27 1015.4
20260905225022 31 13 0.0 4.8 0.00 0.00 0.00 27 1015.4
20260905224058 32 11 3.2 6.4 0.00 0.00 0.00 24 1015.5
20260905224016 32 11 3.2 6.4 0.00 0.00 0.00 24 1015.5
20260905223033 33 350 1.6 14.5 0.00 0.00 0.00 25 1015.5